Time,TemperatureF,DewpointF,PressureIn,WindDirection,WindDirectionDegrees,WindSpeedMPH,WindSpeedGustMPH,Humidity,HourlyPrecipIn,Conditions,Clouds,dailyrainin,SoftwareType,DateUTC
2013-01-27 00:01:00,74.0,-99.9,29.98,South,176,5.0,10.0,-999,-99.99,,,-99.99,,2013-01-27 10:01:00,
2013-01-27 00:11:00,74.0,-99.9,29.98,South,188,4.0,9.0,-999,-99.99,,,-99.99,,2013-01-27 10:11:00,
2013-01-27 00:21:00,74.0,-99.9,29.98,South,181,4.0,9.0,-999,-99.99,,,-99.99,,2013-01-27 10:21:00,
2013-01-27 00:32:00,74.0,-99.9,29.99,South,178,5.0,11.0,-999,-99.99,,,-99.99,,2013-01-27 10:32:00,
2013-01-27 00:42:00,74.0,-99.9,29.98,South,173,4.0,9.0,-999,-99.99,,,-99.99,,2013-01-27 10:42:00,
2013-01-27 00:52:00,74.0,-99.9,29.98,South,186,4.0,8.0,-999,-99.99,,,-99.99,,2013-01-27 10:52:00,
2013-01-27 01:01:00,74.0,-99.9,29.98,South,181,4.0,11.0,-999,-99.99,,,-99.99,,2013-01-27 11:01:00,
2013-01-27 01:11:00,74.0,-99.9,29.98,South,180,4.0,8.0,-999,-99.99,,,-99.99,,2013-01-27 11:11:00,
2013-01-27 01:22:00,74.0,-99.9,29.97,South,181,6.0,12.0,-999,-99.99,,,-99.99,,2013-01-27 11:22:00,
2013-01-27 01:32:00,74.0,-99.9,29.97,South,176,5.0,11.0,-999,-99.99,,,-99.99,,2013-01-27 11:32:00,
2013-01-27 01:42:00,74.0,-99.9,29.96,SSW,197,4.0,11.0,-999,-99.99,,,-99.99,,2013-01-27 11:42:00,
2013-01-27 01:52:00,74.0,-99.9,29.96,SSW,193,6.0,11.0,-999,-99.99,,,-99.99,,2013-01-27 11:52:00,
2013-01-27 02:03:00,74.0,-99.9,29.96,SSW,199,7.0,13.0,-999,-99.99,,,-99.99,,2013-01-27 12:03:00,
2013-01-27 02:12:00,74.0,-99.9,29.95,SSW,202,6.0,13.0,-999,-99.99,,,-99.99,,2013-01-27 12:12:00,
2013-01-27 02:22:00,74.0,-99.9,29.95,SSW,198,6.0,12.0,-999,-99.99,,,-99.99,,2013-01-27 12:22:00,
2013-01-27 02:33:00,74.0,-99.9,29.95,South,185,6.0,12.0,-999,-99.99,,,-99.99,,2013-01-27 12:33:00,
2013-01-27 02:42:00,74.0,-99.9,29.95,SSW,197,5.0,11.0,-999,-99.99,,,-99.99,,2013-01-27 12:42:00,
2013-01-27 02:52:00,75.0,-99.9,29.95,SSW,198,6.0,11.0,-999,-99.99,,,-99.99,,2013-01-27 12:52:00,
2013-01-27 03:02:00,75.0,-99.9,29.96,SSW,195,8.0,14.0,-999,-99.99,,,-99.99,,2013-01-27 13:02:00,
2013-01-27 03:12:00,74.0,-99.9,29.96,SSW,193,8.0,13.0,-999,-99.99,,,-99.99,,2013-01-27 13:12:00,
2013-01-27 03:22:00,74.0,-99.9,29.95,SSW,196,9.0,13.0,-999,-99.99,,,-99.99,,2013-01-27 13:22:00,
2013-01-27 03:32:00,74.0,-99.9,29.96,SSW,205,7.0,12.0,-999,-99.99,,,-99.99,,2013-01-27 13:32:00,
2013-01-27 03:42:00,74.0,-99.9,29.95,SSW,206,10.0,13.0,-999,-99.99,,,-99.99,,2013-01-27 13:42:00,
2013-01-27 03:52:00,74.0,-99.9,29.95,SSW,200,8.0,13.0,-999,-99.99,,,-99.99,,2013-01-27 13:52:00,
2013-01-27 04:02:00,74.0,-99.9,29.95,SSW,199,9.0,13.0,-999,-99.99,,,-99.99,,2013-01-27 14:02:00,
2013-01-27 04:12:00,74.0,-99.9,29.95,SSW,193,9.0,17.0,-999,-99.99,,,-99.99,,2013-01-27 14:12:00,
2013-01-27 04:22:00,74.0,-99.9,29.95,South,188,8.0,11.0,-999,-99.99,,,-99.99,,2013-01-27 14:22:00,
2013-01-27 04:33:00,74.0,-99.9,29.95,SSW,196,8.0,13.0,-999,-99.99,,,-99.99,,2013-01-27 14:33:00,
2013-01-27 04:43:00,74.0,-99.9,29.95,SSW,198,8.0,13.0,-999,-99.99,,,-99.99,,2013-01-27 14:43:00,
2013-01-27 04:53:00,74.0,-99.9,29.95,SSW,200,8.0,15.0,-999,-99.99,,,-99.99,,2013-01-27 14:53:00,
2013-01-27 05:02:00,74.0,-99.9,29.95,SSW,205,8.0,10.0,-999,-99.99,,,-99.99,,2013-01-27 15:02:00,
2013-01-27 05:12:00,74.0,-99.9,29.94,SSW,199,6.0,10.0,-999,-99.99,,,-99.99,,2013-01-27 15:12:00,
2013-01-27 05:22:00,74.0,-99.9,29.94,SSW,203,6.0,11.0,-999,-99.99,,,-99.99,,2013-01-27 15:22:00,
2013-01-27 05:33:00,74.0,-99.9,29.95,SSW,198,6.0,9.0,-999,-99.99,,,-99.99,,2013-01-27 15:33:00,
2013-01-27 05:42:00,74.0,-99.9,29.95,SSW,194,6.0,13.0,-999,-99.99,,,-99.99,,2013-01-27 15:42:00,
2013-01-27 05:53:00,74.0,-99.9,29.95,South,188,5.0,10.0,-999,-99.99,,,-99.99,,2013-01-27 15:53:00,
2013-01-27 06:03:00,74.0,-99.9,29.95,SSW,198,6.0,16.0,-999,-99.99,,,-99.99,,2013-01-27 16:03:00,
2013-01-27 06:12:00,74.0,-99.9,29.95,South,175,5.0,10.0,-999,-99.99,,,-99.99,,2013-01-27 16:12:00,
2013-01-27 06:22:00,74.0,-99.9,29.96,South,184,7.0,15.0,-999,-99.99,,,-99.99,,2013-01-27 16:22:00,
2013-01-27 06:33:00,74.0,-99.9,29.96,SSW,194,6.0,13.0,-999,-99.99,,,-99.99,,2013-01-27 16:33:00,
2013-01-27 06:42:00,74.0,-99.9,29.96,South,180,8.0,12.0,-999,-99.99,,,-99.99,,2013-01-27 16:42:00,
2013-01-27 06:53:00,74.0,-99.9,29.96,South,182,9.0,16.0,-999,-99.99,,,-99.99,,2013-01-27 16:53:00,
2013-01-27 07:02:00,74.0,-99.9,29.96,SSE,167,4.0,10.0,-999,-99.99,,,-99.99,,2013-01-27 17:02:00,
2013-01-27 07:12:00,74.0,-99.9,29.97,SSE,165,5.0,11.0,-999,-99.99,,,-99.99,,2013-01-27 17:12:00,
2013-01-27 07:22:00,74.0,-99.9,29.97,SE,137,6.0,12.0,-999,-99.99,,,-99.99,,2013-01-27 17:22:00,
2013-01-27 07:33:00,74.0,-99.9,29.97,SSE,157,7.0,17.0,-999,-99.99,,,-99.99,,2013-01-27 17:33:00,
2013-01-27 07:42:00,74.0,-99.9,29.98,SSE,152,7.0,14.0,-999,-99.99,,,-99.99,,2013-01-27 17:42:00,
2013-01-27 07:53:00,74.0,-99.9,29.97,South,172,5.0,11.0,-999,-99.99,,,-99.99,,2013-01-27 17:53:00,
2013-01-27 08:03:00,74.0,-99.9,29.97,SE,145,7.0,16.0,-999,-99.99,,,-99.99,,2013-01-27 18:03:00,
2013-01-27 08:12:00,74.0,-99.9,29.98,SSE,148,8.0,15.0,-999,-99.99,,,-99.99,,2013-01-27 18:12:00,
2013-01-27 08:23:00,74.0,-99.9,29.97,SE,139,8.0,13.0,-999,-99.99,,,-99.99,,2013-01-27 18:23:00,
2013-01-27 08:32:00,74.0,-99.9,29.98,SSE,153,8.0,15.0,-999,-99.99,,,-99.99,,2013-01-27 18:32:00,
2013-01-27 08:42:00,75.0,-99.9,29.98,SSE,151,8.0,15.0,-999,-99.99,,,-99.99,,2013-01-27 18:42:00,
2013-01-27 08:53:00,75.0,-99.9,29.98,SSE,152,7.0,16.0,-999,-99.99,,,-99.99,,2013-01-27 18:53:00,
2013-01-27 09:02:00,75.0,-99.9,29.98,SSE,159,6.0,15.0,-999,-99.99,,,-99.99,,2013-01-27 19:02:00,
2013-01-27 09:12:00,75.0,-99.9,29.98,SSE,158,6.0,14.0,-999,-99.99,,,-99.99,,2013-01-27 19:12:00,
2013-01-27 09:22:00,75.0,-99.9,29.98,SSE,161,7.0,11.0,-999,-99.99,,,-99.99,,2013-01-27 19:22:00,
2013-01-27 09:33:00,76.0,-99.9,29.98,South,173,5.0,9.0,-999,-99.99,,,-99.99,,2013-01-27 19:33:00,
2013-01-27 09:42:00,75.0,-99.9,29.99,SSE,148,11.0,18.0,-999,-99.99,,,-99.99,,2013-01-27 19:42:00,
2013-01-27 09:52:00,76.0,-99.9,29.98,SSE,160,6.0,17.0,-999,-99.99,,,-99.99,,2013-01-27 19:52:00,
2013-01-27 10:03:00,76.0,-99.9,29.98,South,184,6.0,15.0,-999,-99.99,,,-99.99,,2013-01-27 20:03:00,
2013-01-27 10:12:00,76.0,-99.9,29.99,SSE,168,5.0,13.0,-999,-99.99,,,-99.99,,2013-01-27 20:12:00,
2013-01-27 10:22:00,76.0,-99.9,29.99,SSE,149,7.0,13.0,-999,-99.99,,,-99.99,,2013-01-27 20:22:00,
2013-01-27 10:33:00,77.0,-99.9,29.99,SSE,163,5.0,11.0,-999,-99.99,,,-99.99,,2013-01-27 20:33:00,
2013-01-27 10:42:00,77.0,-99.9,29.99,SSE,166,5.0,16.0,-999,-99.99,,,-99.99,,2013-01-27 20:42:00,
2013-01-27 10:52:00,77.0,-99.9,29.99,South,182,8.0,13.0,-999,-99.99,,,-99.99,,2013-01-27 20:52:00,
2013-01-27 11:02:00,78.0,-99.9,29.99,SSE,168,6.0,16.0,-999,-99.99,,,-99.99,,2013-01-27 21:02:00,
2013-01-27 11:12:00,77.0,-99.9,29.99,South,187,6.0,16.0,-999,-99.99,,,-99.99,,2013-01-27 21:12:00,
2013-01-27 11:23:00,77.0,-99.9,29.98,South,186,7.0,15.0,-999,-99.99,,,-99.99,,2013-01-27 21:23:00,
2013-01-27 11:33:00,77.0,-99.9,29.98,South,180,8.0,17.0,-999,-99.99,,,-99.99,,2013-01-27 21:33:00,
2013-01-27 11:43:00,77.0,-99.9,29.97,SSE,165,6.0,15.0,-999,-99.99,,,-99.99,,2013-01-27 21:43:00,
2013-01-27 11:52:00,76.0,-99.9,29.96,SSE,148,6.0,10.0,-999,-99.99,,,-99.99,,2013-01-27 21:52:00,
2013-01-27 12:03:00,77.0,-99.9,29.96,SSE,157,8.0,15.0,-999,-99.99,,,-99.99,,2013-01-27 22:03:00,
2013-01-27 12:12:00,77.0,-99.9,29.96,South,169,7.0,11.0,-999,-99.99,,,-99.99,,2013-01-27 22:12:00,
2013-01-27 12:22:00,77.0,-99.9,29.96,South,178,7.0,14.0,-999,-99.99,,,-99.99,,2013-01-27 22:22:00,
2013-01-27 12:33:00,78.0,-99.9,29.96,SSE,165,4.0,15.0,-999,-99.99,,,-99.99,,2013-01-27 22:33:00,
2013-01-27 12:42:00,77.0,-99.9,29.95,SSE,160,6.0,11.0,-999,-99.99,,,-99.99,,2013-01-27 22:42:00,
2013-01-27 12:52:00,77.0,-99.9,29.95,South,184,8.0,15.0,-999,-99.99,,,-99.99,,2013-01-27 22:52:00,
2013-01-27 13:02:00,77.0,-99.9,29.94,South,180,8.0,12.0,-999,-99.99,,,-99.99,,2013-01-27 23:02:00,
2013-01-27 13:12:00,76.0,-99.9,29.94,South,184,8.0,14.0,-999,-99.99,,,-99.99,,2013-01-27 23:12:00,
2013-01-27 13:22:00,77.0,-99.9,29.93,South,170,5.0,16.0,-999,-99.99,,,-99.99,,2013-01-27 23:22:00,
2013-01-27 13:32:00,77.0,-99.9,29.93,South,175,8.0,17.0,-999,-99.99,,,-99.99,,2013-01-27 23:32:00,
2013-01-27 13:42:00,77.0,-99.9,29.92,South,177,6.0,16.0,-999,-99.99,,,-99.99,,2013-01-27 23:42:00,
2013-01-27 13:53:00,76.0,-99.9,29.92,South,188,8.0,15.0,-999,-99.99,,,-99.99,,2013-01-27 23:53:00,
2013-01-27 14:02:00,76.0,-99.9,29.91,South,183,7.0,13.0,-999,-99.99,,,-99.99,,2013-01-28 00:02:00,
2013-01-27 14:12:00,76.0,-99.9,29.91,South,178,8.0,15.0,-999,-99.99,,,-99.99,,2013-01-28 00:12:00,
2013-01-27 14:22:00,77.0,-99.9,29.90,South,186,7.0,12.0,-999,-99.99,,,-99.99,,2013-01-28 00:22:00,
2013-01-27 14:33:00,77.0,-99.9,29.90,South,188,7.0,15.0,-999,-99.99,,,-99.99,,2013-01-28 00:33:00,
2013-01-27 14:42:00,77.0,-99.9,29.90,South,183,6.0,13.0,-999,-99.99,,,-99.99,,2013-01-28 00:42:00,
2013-01-27 14:52:00,77.0,-99.9,29.89,South,187,9.0,16.0,-999,-99.99,,,-99.99,,2013-01-28 00:52:00,
2013-01-27 15:02:00,77.0,-99.9,29.89,South,187,6.0,13.0,-999,-99.99,,,-99.99,,2013-01-28 01:02:00,
2013-01-27 15:12:00,76.0,-99.9,29.89,South,184,7.0,13.0,-999,-99.99,,,-99.99,,2013-01-28 01:12:00,
2013-01-27 15:22:00,76.0,-99.9,29.89,South,186,8.0,14.0,-999,-99.99,,,-99.99,,2013-01-28 01:22:00,
2013-01-27 15:33:00,76.0,-99.9,29.90,South,178,8.0,16.0,-999,-99.99,,,-99.99,,2013-01-28 01:33:00,
2013-01-27 15:42:00,76.0,-99.9,29.90,SSE,150,8.0,13.0,-999,-99.99,,,-99.99,,2013-01-28 01:42:00,
2013-01-27 15:52:00,76.0,-99.9,29.89,SSE,167,4.0,11.0,-999,-99.99,,,-99.99,,2013-01-28 01:52:00,
2013-01-27 16:02:00,73.0,-99.9,29.90,SSW,200,8.0,14.0,-999,-99.99,,,-99.99,,2013-01-28 02:02:00,
2013-01-27 16:12:00,72.0,-99.9,29.90,SSW,195,11.0,17.0,-999,-99.99,,,-99.99,,2013-01-28 02:12:00,
2013-01-27 16:22:00,71.0,-99.9,29.90,North,352,3.0,9.0,-999,-99.99,,,-99.99,,2013-01-28 02:22:00,
2013-01-27 16:32:00,73.0,-99.9,29.90,SSW,200,4.0,9.0,-999,-99.99,,,-99.99,,2013-01-28 02:32:00,
2013-01-27 16:42:00,74.0,-99.9,29.90,SSW,199,9.0,15.0,-999,-99.99,,,-99.99,,2013-01-28 02:42:00,
2013-01-27 16:53:00,75.0,-99.9,29.90,South,178,4.0,12.0,-999,-99.99,,,-99.99,,2013-01-28 02:53:00,
2013-01-27 17:02:00,75.0,-99.9,29.90,South,176,5.0,11.0,-999,-99.99,,,-99.99,,2013-01-28 03:02:00,
2013-01-27 17:12:00,75.0,-99.9,29.90,South,183,4.0,12.0,-999,-99.99,,,-99.99,,2013-01-28 03:12:00,
2013-01-27 17:22:00,75.0,-99.9,29.91,South,188,5.0,13.0,-999,-99.99,,,-99.99,,2013-01-28 03:22:00,
2013-01-27 17:32:00,74.0,-99.9,29.91,South,176,5.0,9.0,-999,-99.99,,,-99.99,,2013-01-28 03:32:00,
2013-01-27 17:42:00,74.0,-99.9,29.91,South,179,7.0,13.0,-999,-99.99,,,-99.99,,2013-01-28 03:42:00,
2013-01-27 17:53:00,74.0,-99.9,29.91,South,174,5.0,10.0,-999,-99.99,,,-99.99,,2013-01-28 03:53:00,
2013-01-27 18:02:00,74.0,-99.9,29.92,South,178,6.0,10.0,-999,-99.99,,,-99.99,,2013-01-28 04:02:00,
2013-01-27 18:12:00,74.0,-99.9,29.92,SSE,167,5.0,12.0,-999,-99.99,,,-99.99,,2013-01-28 04:12:00,
2013-01-27 18:22:00,75.0,-99.9,29.92,South,187,5.0,10.0,-999,-99.99,,,-99.99,,2013-01-28 04:22:00,
2013-01-27 18:32:00,74.0,-99.9,29.92,SSE,167,6.0,12.0,-999,-99.99,,,-99.99,,2013-01-28 04:32:00,
2013-01-27 18:42:00,75.0,-99.9,29.92,South,184,4.0,10.0,-999,-99.99,,,-99.99,,2013-01-28 04:42:00,
2013-01-27 18:52:00,75.0,-99.9,29.93,South,180,4.0,11.0,-999,-99.99,,,-99.99,,2013-01-28 04:52:00,
2013-01-27 19:04:00,75.0,-99.9,29.93,South,181,5.0,9.0,-999,-99.99,,,-99.99,,2013-01-28 05:04:00,
2013-01-27 19:12:00,75.0,-99.9,29.94,South,177,4.0,10.0,-999,-99.99,,,-99.99,,2013-01-28 05:12:00,
2013-01-27 19:22:00,75.0,-99.9,29.94,SSE,163,3.0,10.0,-999,-99.99,,,-99.99,,2013-01-28 05:22:00,
2013-01-27 19:32:00,75.0,-99.9,29.94,SSE,157,3.0,8.0,-999,-99.99,,,-99.99,,2013-01-28 05:32:00,
2013-01-27 19:42:00,75.0,-99.9,29.94,SSE,154,5.0,8.0,-999,-99.99,,,-99.99,,2013-01-28 05:42:00,
2013-01-27 19:52:00,75.0,-99.9,29.95,SE,146,4.0,6.0,-999,-99.99,,,-99.99,,2013-01-28 05:52:00,
2013-01-27 20:02:00,75.0,-99.9,29.96,SSE,165,3.0,9.0,-999,-99.99,,,-99.99,,2013-01-28 06:02:00,
2013-01-27 20:12:00,75.0,-99.9,29.96,SSE,158,3.0,7.0,-999,-99.99,,,-99.99,,2013-01-28 06:12:00,
2013-01-27 20:22:00,75.0,-99.9,29.96,SSE,164,3.0,8.0,-999,-99.99,,,-99.99,,2013-01-28 06:22:00,
2013-01-27 20:32:00,75.0,-99.9,29.97,SSE,148,5.0,7.0,-999,-99.99,,,-99.99,,2013-01-28 06:32:00,
2013-01-27 20:42:00,75.0,-99.9,29.96,SSE,157,3.0,6.0,-999,-99.99,,,-99.99,,2013-01-28 06:42:00,
2013-01-27 20:52:00,75.0,-99.9,29.96,SSE,154,2.0,6.0,-999,-99.99,,,-99.99,,2013-01-28 06:52:00,
2013-01-27 21:03:00,70.0,-99.9,29.97,WNW,297,8.0,12.0,-999,-99.99,,,-99.99,,2013-01-28 07:03:00,
2013-01-27 21:11:00,70.0,-99.9,29.97,NW,308,7.0,9.0,-999,-99.99,,,-99.99,,2013-01-28 07:11:00,
2013-01-27 21:22:00,70.0,-99.9,29.98,NW,323,3.0,11.0,-999,-99.99,,,-99.99,,2013-01-28 07:22:00,
2013-01-27 21:32:00,68.0,-99.9,29.99,WNW,300,9.0,17.0,-999,-99.99,,,-99.99,,2013-01-28 07:32:00,
2013-01-27 21:42:00,69.0,-99.9,30.00,North,353,6.0,11.0,-999,-99.99,,,-99.99,,2013-01-28 07:42:00,
2013-01-27 21:52:00,68.0,-99.9,30.00,NNE,12,6.0,12.0,-999,-99.99,,,-99.99,,2013-01-28 07:52:00,
2013-01-27 22:01:00,69.0,-99.9,29.99,NNW,330,4.0,7.0,-999,-99.99,,,-99.99,,2013-01-28 08:01:00,
2013-01-27 22:11:00,68.0,-99.9,29.99,North,3,10.0,14.0,-999,-99.99,,,-99.99,,2013-01-28 08:11:00,
2013-01-27 22:21:00,67.0,-99.9,30.00,NNW,344,8.0,13.0,-999,-99.99,,,-99.99,,2013-01-28 08:21:00,
2013-01-27 22:32:00,66.0,-99.9,30.00,North,2,6.0,12.0,-999,-99.99,,,-99.99,,2013-01-28 08:32:00,
2013-01-27 22:42:00,66.0,-99.9,29.99,North,351,3.0,7.0,-999,-99.99,,,-99.99,,2013-01-28 08:42:00,
2013-01-27 22:53:00,67.0,-99.9,29.99,NE,40,4.0,11.0,-999,-99.99,,,-99.99,,2013-01-28 08:53:00,
2013-01-27 23:02:00,67.0,-99.9,30.00,North,350,6.0,10.0,-999,-99.99,,,-99.99,,2013-01-28 09:02:00,
2013-01-27 23:12:00,67.0,-99.9,29.99,North,2,6.0,10.0,-999,-99.99,,,-99.99,,2013-01-28 09:12:00,
2013-01-27 23:22:00,67.0,-99.9,29.99,NNW,347,6.0,10.0,-999,-99.99,,,-99.99,,2013-01-28 09:22:00,
2013-01-27 23:32:00,67.0,-99.9,29.99,WNW,303,4.0,12.0,-999,-99.99,,,-99.99,,2013-01-28 09:32:00,
2013-01-27 23:42:00,67.0,-99.9,29.99,NNW,348,5.0,7.0,-999,-99.99,,,-99.99,,2013-01-28 09:42:00,
2013-01-27 23:52:00,66.0,-99.9,29.99,North,7,5.0,7.0,-999,-99.99,,,-99.99,,2013-01-28 09:52:00,